Simultaneous Nadir Overpasses (SNOs) Predictions

Prediction of SNOs between GOES-14 and NPP Satellite Orbit:

Table of predicted SNOs for the next 14.0 days since TLE Epoch: 9/4/2020
Index Date Time (GOES-14) GOES-14 Lat,Lon NPP Lat,Lon Distance(km) Time Diff (sec)
1 09/05/2020 08:32:51 0.39,-104.43 0.84,-106.45 229.84 80
2 09/06/2020 08:11:27 0.39,-104.42 -0.16,-101.91 285.13 80
3 09/07/2020 20:33:24 -0.38,-104.53 -1.01,-107.22 307.55 80
4 09/08/2020 20:17:21 -0.38,-104.53 0.05,-102.70 209.22 80
5 09/10/2020 08:39:08 0.37,-104.43 1.18,-107.96 403.24 80
6 09/11/2020 08:17:43 0.37,-104.41 0.17,-103.43 111.37 80
7 09/12/2020 20:39:41 -0.36,-104.48 -1.33,-108.74 485.36 80
8 09/13/2020 20:23:37 -0.36,-104.48 -0.27,-104.22 31.25 80
9 09/16/2020 08:26:41 0.35,-104.39 0.44,-104.96 63.67 80
10 09/17/2020 08:05:16 0.36,-104.37 -0.50,-100.41 451.11 80
